Location: Newark
(43.0000°N, 1.6781°W)
Time: 22:59:50
(UTC+00:00)

X-37B - Pass Details

Date: 07 December 2021
Orbit: 334 x 337 km, 45.0° (Epoch: 11 January)

Event Time Altitude Azimuth Distance (km) Brightness Sun altitude
Rises 18:46:11 0° 249° (WSW) 2,097 5.6 -23.8°
Reaches altitude 10° 18:48:11 10° 248° (WSW) 1,263 4.2 -24.1°
Enters shadow 18:49:17 21° 246° (WSW) 815 2.9 -24.3°
